sat.trackr.live / text

‹ back to catalog

STARLINK-32259

NORAD 60937 · 2024-155P

PAYLOAD ACTIVE UNKNOWN

§ Identity

Operator
Country
US
Launch date
2024-08-31
Launch site
AFWTR
Launch vehicle
Mass (kg)
RCS (m²)

Purposes: comms

External: N2YO · Heavens-Above · Gunter

§ Orbital elements

Epoch: 2026-09-20T10:05:46.974048Z

Period
93.85 min
Inclination
53.1597°
Eccentricity
0.0001352
Mean motion
15.34390028 rev/d
Perigee alt
461.8 km
Apogee alt
463.7 km
Semi-major
6,840.9 km
B*
3.1579e-5
RAAN
302.4282°
Arg perigee
82.6354°
Mean anomaly
277.4802°
Rev number
11,619

§ Raw data

STARLINK-322591 60937U 24155P   26263.42068257  .00000690  00000+0  31579-4 0  99982 60937  53.1597 302.4282 0001352  82.6354 277.4802 15.34390028116190

JSON: /api/v1/satellites/60937 · /tle

For live sub-satellite position, see the globe view (requires WebGL).

§ Visibility from observer

Set your observer location to see the next 7 days of passes ≥ 10°. The values pass through the URL so the page stays shareable.

No JS? Fill the form by hand. The geolocation button needs JavaScript.